Home   Weather   Rotterdam   Past weeks
Flag for Netherlands

Past Weather in Rotterdam, Netherlands — Yesterday and Last 2 Weeks

Now
52 °F

Mostly cloudy.


Feels Like: 48 °F
Forecast: 50 / 35 °F
Wind: 10 mph from North

Location: Rotterdam Zestienhoven Airport

Current Time: Mar 23, 2019 at 2:11:26 pm

Latest Report: Mar 23, 2019 at 1:25 pm


Visibility: N/A

Pressure: 30.45 "Hg

Humidity: 77%

Dew Point: 45 °F

Location of RotterdamLocation

Past Weather in Rotterdam — Graph

°F

Rotterdam Temperature Yesterday

Maximum temperature yesterday: 61 °F (at 2:55 pm)
Minimum temperature yesterday: 43 °F (at 7:25 am)
Average temperature yesterday: 48 °F

High & Low Weather Summary for the Past Weeks

 TemperatureHumidityPressure
High61 °F (Mar 22, 2:55 pm)100% (Mar 9, 2:55 am)30.57 "Hg (Mar 9, 2:55 am)
Low30 °F (Mar 19, 5:25 am)52% (Mar 22, 2:55 pm)29.36 "Hg (Mar 17, 3:25 am)
Average46 °F82%29.96 "Hg
* Reported Mar 8 12:25 pm — Mar 23 12:55 pm, Rotterdam. Weather by CustomWeather, © 2019

Note: Actual official high and low records may vary slightly from our data, if they occured in-between our weather recording intervals... More about our weather records

Advertising

Rotterdam Weather History for the Previous 24 Hours

Scroll right to see more
 ConditionsComfort  
Time TempWeatherWind HumidityBarometerVisibility
12:55 pm
Sat, Mar 23
50 °FMostly cloudy.9 mph82%30.45 "HgN/A
12:25 pm50 °FMostly cloudy.6 mph88%30.42 "HgN/A
11:55 am50 °FOvercast.7 mph88%30.42 "HgN/A
11:25 am52 °FCloudy.8 mph82%30.42 "HgN/A
10:55 am52 °FOvercast.2 mph82%30.42 "HgN/A
10:25 am52 °FMostly cloudy.5 mph88%30.42 "Hg6 mi
9:55 am50 °FOvercast.5 mph88%30.42 "Hg5 mi
9:25 am50 °FMostly cloudy.6 mph88%30.39 "Hg5 mi
8:55 am50 °FMostly cloudy.7 mph88%30.39 "Hg4 mi
7:55 am48 °FOvercast.5 mph94%30.39 "Hg4 mi
7:25 am48 °FOvercast.5 mph94%30.39 "Hg4 mi
6:55 am48 °FOvercast.5 mph87%30.36 "Hg4 mi
6:25 am48 °FFog.5 mph87%30.36 "Hg3 mi
5:55 am46 °FFog.2 mph93%30.36 "Hg3 mi
5:25 am46 °FFog.5 mph93%30.36 "Hg3 mi
4:55 am45 °FFog.5 mph93%30.36 "Hg3 mi
4:25 am45 °FFog.5 mph93%30.33 "Hg3 mi
3:55 am43 °FFog.6 mph100%30.33 "Hg3 mi
3:25 am45 °FFog.5 mph93%30.33 "Hg3 mi
2:55 am46 °FFog.5 mph100%30.33 "Hg3 mi
2:25 am48 °FFog.3 mph87%30.33 "Hg3 mi
1:55 am48 °FFog.5 mph94%30.33 "Hg3 mi
1:25 am46 °FFog.3 mph93%30.36 "Hg2 mi
12:55 am46 °FFog.3 mph93%30.36 "Hg2 mi
12:25 am48 °FFog.3 mph87%30.36 "Hg2 mi
11:55 pm
Fri, Mar 22
46 °FFog.5 mph100%30.36 "Hg2 mi
11:25 pm46 °FFog.9 mph100%30.36 "Hg2 mi
10:55 pm46 °FFog.7 mph100%30.36 "Hg2 mi
10:25 pm46 °FFog.6 mph100%30.36 "Hg1 mi
9:55 pm46 °FFog.7 mph100%30.36 "Hg1 mi
9:25 pm46 °FFog.7 mph93%30.36 "Hg1 mi
8:55 pm45 °FFog.8 mph100%30.33 "Hg1 mi
8:25 pm45 °FFog.7 mph100%30.33 "Hg1 mi
7:55 pm45 °FFog.7 mph100%30.33 "Hg1 mi
7:25 pm45 °FFog.6 mph100%30.33 "Hg1 mi
6:55 pm45 °FFog.7 mph93%30.33 "Hg1 mi
6:25 pm48 °FFog.7 mph94%30.33 "Hg2 mi
5:55 pm52 °FFog.6 mph82%30.33 "Hg2 mi
5:25 pm52 °FHaze.9 mph82%30.30 "Hg2 mi
4:55 pm57 °FClear.10 mph77%30.30 "Hg4 mi
4:25 pm61 °FRefreshingly cool.7 mph52%30.30 "HgN/A
3:55 pm61 °FRefreshingly cool.7 mph55%30.30 "HgN/A
3:25 pm61 °FRefreshingly cool.6 mph55%30.33 "HgN/A
2:55 pm61 °FRefreshingly cool.5 mph52%30.33 "HgN/A
2:25 pm59 °FRefreshingly cool.5 mph59%30.36 "HgN/A
Weather by CustomWeather, © 2019

See weather overview